Time,TemperatureF,DewpointF,PressureIn,WindDirection,WindDirectionDegrees,WindSpeedMPH,WindSpeedGustMPH,Humidity,HourlyPrecipIn,Conditions,Clouds,dailyrainin,SoftwareType,DateUTC
2013-02-25 00:02:00,32.2,26.0,30.09,ESE,107,2.0,3.0,77,0.00,,,0.00,weatherlink.com 1.10,2013-02-25 05:02:00,
2013-02-25 00:17:00,32.6,26.0,30.09,ESE,115,1.0,5.0,76,0.00,,,0.00,weatherlink.com 1.10,2013-02-25 05:17:00,
2013-02-25 00:32:00,32.5,26.0,30.09,SSE,156,1.0,4.0,76,0.00,,,0.00,weatherlink.com 1.10,2013-02-25 05:32:00,
2013-02-25 00:47:00,32.7,26.0,30.09,East,101,1.0,3.0,76,0.00,,,0.00,weatherlink.com 1.10,2013-02-25 05:47:00,
2013-02-25 01:03:00,32.4,26.0,30.09,SE,135,1.0,3.0,76,0.00,,,0.00,weatherlink.com 1.10,2013-02-25 06:03:00,
2013-02-25 01:17:00,32.1,26.0,30.09,ESE,107,4.0,4.0,77,0.00,,,0.00,weatherlink.com 1.10,2013-02-25 06:17:00,
2013-02-25 01:32:00,31.7,25.0,30.09,ESE,122,0.0,3.0,77,0.00,,,0.00,weatherlink.com 1.10,2013-02-25 06:32:00,
2013-02-25 01:47:00,31.4,25.0,30.09,East,91,4.0,6.0,78,0.00,,,0.00,weatherlink.com 1.10,2013-02-25 06:47:00,
2013-02-25 02:02:00,31.2,25.0,30.08,ESE,113,2.0,5.0,79,0.00,,,0.00,weatherlink.com 1.10,2013-02-25 07:02:00,
2013-02-25 02:17:00,30.8,25.0,30.07,ESE,104,1.0,5.0,79,0.00,,,0.00,weatherlink.com 1.10,2013-02-25 07:17:00,
2013-02-25 02:32:00,30.2,25.0,30.07,SE,146,2.0,5.0,80,0.00,,,0.00,weatherlink.com 1.10,2013-02-25 07:32:00,
2013-02-25 02:47:00,29.8,25.0,30.08,ESE,117,1.0,5.0,81,0.00,,,0.00,weatherlink.com 1.10,2013-02-25 07:47:00,
2013-02-25 03:02:00,29.7,25.0,30.08,SE,140,2.0,6.0,82,0.00,,,0.00,weatherlink.com 1.10,2013-02-25 08:02:00,
2013-02-25 03:17:00,29.4,25.0,30.08,SE,128,2.0,5.0,82,0.00,,,0.00,weatherlink.com 1.10,2013-02-25 08:17:00,
2013-02-25 03:32:00,28.6,24.0,30.09,SE,128,1.0,2.0,83,0.00,,,0.00,weatherlink.com 1.10,2013-02-25 08:32:00,
2013-02-25 03:48:00,28.4,24.0,30.09,SE,128,0.0,2.0,84,0.00,,,0.00,weatherlink.com 1.10,2013-02-25 08:48:00,
2013-02-25 04:03:00,28.9,25.0,30.09,ESE,117,1.0,4.0,84,0.00,,,0.00,weatherlink.com 1.10,2013-02-25 09:03:00,
2013-02-25 04:18:00,29.0,25.0,30.09,ESE,123,1.0,4.0,83,0.00,,,0.00,weatherlink.com 1.10,2013-02-25 09:18:00,
2013-02-25 04:33:00,28.3,24.0,30.09,SE,139,0.0,1.0,83,0.00,,,0.00,weatherlink.com 1.10,2013-02-25 09:33:00,
2013-02-25 04:48:00,28.2,24.0,30.09,SE,133,1.0,3.0,84,0.00,,,0.00,weatherlink.com 1.10,2013-02-25 09:48:00,
2013-02-25 05:03:00,27.9,24.0,30.09,SE,135,1.0,3.0,85,0.00,,,0.00,weatherlink.com 1.10,2013-02-25 10:03:00,
2013-02-25 05:18:00,28.1,24.0,30.09,ESE,119,4.0,5.0,84,0.00,,,0.00,weatherlink.com 1.10,2013-02-25 10:18:00,
2013-02-25 05:33:00,27.4,23.0,30.10,SE,128,0.0,2.0,84,0.00,,,0.00,weatherlink.com 1.10,2013-02-25 10:33:00,
2013-02-25 05:48:00,27.2,23.0,30.10,SE,133,1.0,3.0,85,0.00,,,0.00,weatherlink.com 1.10,2013-02-25 10:48:00,
2013-02-25 06:03:00,27.3,23.0,30.11,SE,136,3.0,5.0,85,0.00,,,0.00,weatherlink.com 1.10,2013-02-25 11:03:00,
2013-02-25 06:18:00,27.7,24.0,30.11,SE,136,1.0,4.0,84,0.00,,,0.00,weatherlink.com 1.10,2013-02-25 11:18:00,
2013-02-25 06:33:00,27.9,24.0,30.11,SE,145,2.0,6.0,84,0.00,,,0.00,weatherlink.com 1.10,2013-02-25 11:33:00,
2013-02-25 06:48:00,28.1,24.0,30.10,ESE,113,2.0,6.0,83,0.00,,,0.00,weatherlink.com 1.10,2013-02-25 11:48:00,
2013-02-25 07:03:00,27.7,24.0,30.09,SE,124,4.0,6.0,84,0.00,,,0.00,weatherlink.com 1.10,2013-02-25 12:03:00,
2013-02-25 07:18:00,27.7,24.0,30.09,ESE,111,5.0,7.0,84,0.00,,,0.00,weatherlink.com 1.10,2013-02-25 12:18:00,
2013-02-25 07:33:00,27.7,24.0,30.08,ESE,102,2.0,7.0,84,0.00,,,0.00,weatherlink.com 1.10,2013-02-25 12:33:00,
2013-02-25 07:48:00,27.9,24.0,30.08,SSE,147,3.0,8.0,84,0.00,,,0.00,weatherlink.com 1.10,2013-02-25 12:48:00,
2013-02-25 08:03:00,28.6,24.0,30.08,ESE,107,4.0,6.0,83,0.00,,,0.00,weatherlink.com 1.10,2013-02-25 13:03:00,
2013-02-25 08:18:00,29.8,25.0,30.08,SE,139,3.0,6.0,81,0.00,,,0.00,weatherlink.com 1.10,2013-02-25 13:18:00,
2013-02-25 08:33:00,31.0,25.0,30.09,SE,140,2.0,7.0,78,0.00,,,0.00,weatherlink.com 1.10,2013-02-25 13:33:00,
2013-02-25 08:49:00,32.1,25.0,30.10,SE,138,7.0,9.0,76,0.00,,,0.00,weatherlink.com 1.10,2013-02-25 13:49:00,
2013-02-25 09:03:00,32.6,24.0,30.10,South,176,3.0,13.0,72,0.00,,,0.00,weatherlink.com 1.10,2013-02-25 14:03:00,
2013-02-25 09:18:00,32.9,25.0,30.10,ESE,114,5.0,12.0,72,0.00,,,0.00,weatherlink.com 1.10,2013-02-25 14:18:00,
2013-02-25 09:33:00,33.2,25.0,30.10,SE,128,4.0,13.0,71,0.00,,,0.00,weatherlink.com 1.10,2013-02-25 14:33:00,
2013-02-25 09:48:00,33.8,25.0,30.09,ESE,114,2.0,10.0,70,0.00,,,0.00,weatherlink.com 1.10,2013-02-25 14:48:00,
2013-02-25 10:03:00,35.2,26.0,30.10,SE,132,9.0,13.0,68,0.00,,,0.00,weatherlink.com 1.10,2013-02-25 15:03:00,
2013-02-25 10:18:00,35.9,25.0,30.10,SSE,150,4.0,11.0,64,0.00,,,0.00,weatherlink.com 1.10,2013-02-25 15:18:00,
2013-02-25 10:33:00,37.1,26.0,30.09,SSW,195,3.0,12.0,65,0.00,,,0.00,weatherlink.com 1.10,2013-02-25 15:33:00,
2013-02-25 10:49:00,37.7,25.0,30.09,SSE,148,4.0,14.0,60,0.00,,,0.00,weatherlink.com 1.10,2013-02-25 15:49:00,
2013-02-25 11:03:00,37.9,25.0,30.09,SE,125,4.0,11.0,59,0.00,,,0.00,weatherlink.com 1.10,2013-02-25 16:03:00,
2013-02-25 11:18:00,39.0,26.0,30.08,ESE,120,7.0,8.0,60,0.00,,,0.00,weatherlink.com 1.10,2013-02-25 16:18:00,
2013-02-25 11:33:00,39.6,26.0,30.07,ESE,102,6.0,12.0,58,0.00,,,0.00,weatherlink.com 1.10,2013-02-25 16:33:00,
2013-02-25 11:48:00,40.1,26.0,30.06,SSE,158,4.0,14.0,58,0.00,,,0.00,weatherlink.com 1.10,2013-02-25 16:48:00,
2013-02-25 12:03:00,41.2,26.0,30.05,ESE,108,5.0,11.0,56,0.00,,,0.00,weatherlink.com 1.10,2013-02-25 17:03:00,
2013-02-25 12:18:00,41.3,25.0,30.05,East,89,8.0,14.0,53,0.00,,,0.00,weatherlink.com 1.10,2013-02-25 17:18:00,
2013-02-25 12:33:00,41.7,26.0,30.05,SE,127,4.0,14.0,54,0.00,,,0.00,weatherlink.com 1.10,2013-02-25 17:33:00,
2013-02-25 12:49:00,42.7,26.0,30.04,East,79,6.0,10.0,51,0.00,,,0.00,weatherlink.com 1.10,2013-02-25 17:49:00,
2013-02-25 13:04:00,43.6,26.0,30.04,SE,142,4.0,10.0,50,0.00,,,0.00,weatherlink.com 1.10,2013-02-25 18:04:00,
2013-02-25 13:19:00,44.3,26.0,30.02,SE,132,3.0,9.0,49,0.00,,,0.00,weatherlink.com 1.10,2013-02-25 18:19:00,
2013-02-25 13:34:00,44.4,26.0,30.01,SSE,148,4.0,12.0,48,0.00,,,0.00,weatherlink.com 1.10,2013-02-25 18:34:00,
2013-02-25 13:49:00,45.0,25.0,30.00,East,99,5.0,13.0,46,0.00,,,0.00,weatherlink.com 1.10,2013-02-25 18:49:00,
2013-02-25 14:04:00,45.1,24.0,29.99,East,82,6.0,11.0,44,0.00,,,0.00,weatherlink.com 1.10,2013-02-25 19:04:00,
2013-02-25 14:19:00,46.3,26.0,29.98,ESE,104,5.0,12.0,45,0.00,,,0.00,weatherlink.com 1.10,2013-02-25 19:19:00,
2013-02-25 14:34:00,46.0,26.0,29.96,East,90,6.0,10.0,45,0.00,,,0.00,weatherlink.com 1.10,2013-02-25 19:34:00,
2013-02-25 14:49:00,47.0,25.0,29.96,SE,142,4.0,10.0,43,0.00,,,0.00,weatherlink.com 1.10,2013-02-25 19:49:00,
2013-02-25 15:04:00,46.4,24.0,29.95,East,86,4.0,14.0,42,0.00,,,0.00,weatherlink.com 1.10,2013-02-25 20:04:00,
2013-02-25 15:19:00,46.9,24.0,29.95,SE,142,6.0,11.0,41,0.00,,,0.00,weatherlink.com 1.10,2013-02-25 20:19:00,
2013-02-25 15:34:00,47.1,25.0,29.94,SSE,158,6.0,12.0,42,0.00,,,0.00,weatherlink.com 1.10,2013-02-25 20:34:00,
2013-02-25 15:49:00,46.8,25.0,29.94,NE,46,3.0,12.0,42,0.00,,,0.00,weatherlink.com 1.10,2013-02-25 20:49:00,
2013-02-25 16:04:00,47.0,25.0,29.94,ESE,110,7.0,12.0,43,0.00,,,0.00,weatherlink.com 1.10,2013-02-25 21:04:00,
2013-02-25 16:19:00,47.2,25.0,29.93,ESE,117,7.0,12.0,42,0.00,,,0.00,weatherlink.com 1.10,2013-02-25 21:19:00,
2013-02-25 16:34:00,46.9,26.0,29.94,SSE,158,4.0,11.0,44,0.00,,,0.00,weatherlink.com 1.10,2013-02-25 21:34:00,
2013-02-25 16:49:00,45.5,25.0,29.93,ESE,117,6.0,14.0,45,0.00,,,0.00,weatherlink.com 1.10,2013-02-25 21:49:00,
2013-02-25 17:04:00,44.8,25.0,29.93,ESE,123,6.0,13.0,46,0.00,,,0.00,weatherlink.com 1.10,2013-02-25 22:04:00,
2013-02-25 17:19:00,44.7,26.0,29.93,East,90,3.0,10.0,48,0.00,,,0.00,weatherlink.com 1.10,2013-02-25 22:19:00,
2013-02-25 17:34:00,44.3,26.0,29.92,ESE,105,9.0,12.0,48,0.00,,,0.00,weatherlink.com 1.10,2013-02-25 22:34:00,
2013-02-25 17:49:00,43.8,26.0,29.91,East,87,14.0,14.0,49,0.00,,,0.00,weatherlink.com 1.10,2013-02-25 22:49:00,
2013-02-25 18:04:00,43.3,26.0,29.90,ESE,115,10.0,10.0,51,0.00,,,0.00,weatherlink.com 1.10,2013-02-25 23:04:00,
2013-02-25 18:19:00,42.8,26.0,29.89,East,100,10.0,11.0,51,0.00,,,0.00,weatherlink.com 1.10,2013-02-25 23:19:00,
2013-02-25 18:34:00,42.3,26.0,29.87,NE,55,8.0,12.0,52,0.00,,,0.00,weatherlink.com 1.10,2013-02-25 23:34:00,
2013-02-25 18:49:00,41.9,26.0,29.87,SE,131,5.0,13.0,53,0.00,,,0.00,weatherlink.com 1.10,2013-02-25 23:49:00,
2013-02-25 19:04:00,41.6,25.0,29.84,SE,139,4.0,16.0,53,0.00,,,0.00,weatherlink.com 1.10,2013-02-26 00:04:00,
2013-02-25 19:19:00,41.4,26.0,29.85,East,101,5.0,16.0,54,0.00,,,0.00,weatherlink.com 1.10,2013-02-26 00:19:00,
2013-02-25 19:34:00,40.8,26.0,29.85,ESE,109,4.0,12.0,55,0.00,,,0.00,weatherlink.com 1.10,2013-02-26 00:34:00,
2013-02-25 19:50:00,40.4,26.0,29.84,East,94,12.0,14.0,56,0.00,,,0.00,weatherlink.com 1.10,2013-02-26 00:50:00,
2013-02-25 20:05:00,40.4,26.0,29.87,ESE,120,7.0,12.0,56,0.00,,,0.00,weatherlink.com 1.10,2013-02-26 01:05:00,
2013-02-25 20:20:00,40.2,26.0,29.87,East,91,11.0,13.0,57,0.00,,,0.00,weatherlink.com 1.10,2013-02-26 01:20:00,
2013-02-25 20:35:00,40.6,26.0,29.88,ESE,122,5.0,14.0,56,0.00,,,0.00,weatherlink.com 1.10,2013-02-26 01:35:00,
2013-02-25 20:50:00,40.5,26.0,29.87,SE,125,2.0,15.0,57,0.00,,,0.00,weatherlink.com 1.10,2013-02-26 01:50:00,
2013-02-25 21:05:00,40.2,26.0,29.87,ESE,110,13.0,15.0,58,0.00,,,0.00,weatherlink.com 1.10,2013-02-26 02:05:00,
2013-02-25 21:20:00,39.8,26.0,29.87,ESE,104,6.0,13.0,59,0.00,,,0.00,weatherlink.com 1.10,2013-02-26 02:20:00,
2013-02-25 21:35:00,39.6,27.0,29.86,SSE,148,5.0,15.0,60,0.00,,,0.00,weatherlink.com 1.10,2013-02-26 02:35:00,
2013-02-25 21:50:00,39.3,27.0,29.85,SSE,165,6.0,12.0,61,0.00,,,0.00,weatherlink.com 1.10,2013-02-26 02:50:00,
2013-02-25 22:05:00,39.3,27.0,29.84,East,99,17.0,17.0,61,0.00,,,0.00,weatherlink.com 1.10,2013-02-26 03:05:00,
2013-02-25 22:20:00,39.3,27.0,29.82,SSE,153,9.0,16.0,61,0.00,,,0.00,weatherlink.com 1.10,2013-02-26 03:20:00,
2013-02-25 22:35:00,39.3,27.0,29.83,SE,132,3.0,13.0,61,0.00,,,0.00,weatherlink.com 1.10,2013-02-26 03:35:00,
2013-02-25 22:50:00,39.3,27.0,29.81,ESE,102,6.0,14.0,61,0.00,,,0.00,weatherlink.com 1.10,2013-02-26 03:50:00,
2013-02-25 23:05:00,39.4,26.0,29.81,ESE,108,11.0,14.0,59,0.00,,,0.00,weatherlink.com 1.10,2013-02-26 04:05:00,
2013-02-25 23:20:00,39.6,26.0,29.79,East,90,10.0,16.0,59,0.00,,,0.00,weatherlink.com 1.10,2013-02-26 04:20:00,
2013-02-25 23:35:00,39.5,26.0,29.79,ESE,122,9.0,17.0,58,0.00,,,0.00,weatherlink.com 1.10,2013-02-26 04:35:00,
2013-02-25 23:50:00,39.5,26.0,29.77,East,83,4.0,17.0,58,0.00,,,0.00,weatherlink.com 1.10,2013-02-26 04:50:00,